IRIDIUM 57 [+]

Last updated on Thu Jun 23 2016 17:38:10 GMT+0000 (Coordinated Universal Time)

1 25273U 98019B 16175.27410102 .00000090 00000-0 24977-4 0 9995 2 25273 86.3974 77.3719 0002147 88.9196 271.2245 14.34223897954629

Satellite not in orbit

IRIDIUM 57 [+]